Atlantic City, NJ

4:14 AM EST on December 16, 2017 (GMT -0500)
Seaside Road Beach | | Change Station

Elev 20 ft 39.38 °N, 74.40 °W | Updated 16 seconds ago

Clear
Clear
29.1 °F
Feels Like 29 °F
N
0.0
Wind Variable Wind from ENE
Gusts 0.0 mph

Today
High -- | Low -- °F
--% Chance of Precip.
Yesterday
High -- | Low -- °F
Precip. -- in
Pressure 30.04 in
Visibility 9.0 miles
Clouds Clear
Windchill 29 °F
Dew Point 20 °F
Humidity 70%
Rainfall 0.00 in
Snow Depth Not available.
7:11 AM 4:35 PM
Waning Crescent, 3% visible
METAR KACY 160854Z 26007KT 9SM CLR M04/M07 A3004 RMK AO2 SLP173 T10391067 51019
Pressure 30.04 in
Visibility 9.0 miles
Clouds Clear
Windchill 29 °F
Dew Point 20 °F
Humidity 70%
Rainfall 0.00 in
Snow Depth Not available.
7:11 AM 4:35 PM
Waning Crescent, 3% visible
METAR KACY 160854Z 26007KT 9SM CLR M04/M07 A3004 RMK AO2 SLP173 T10391067 51019

Get Severe Weather Alerts

Thanks for signing up!

Be on the lookout for a verification email in your inbox.

You'll start receiving the daily forecast at 6 AM.

×

10-Day Weather Forecast

Almanac

Astronomy

Dec. 16, 2017 Rise Set
Actual Time
Civil Twilight
Nautical Twilight
Astronomical Twilight
Moon
Length of Visible Light
Length of Day
Tomorrow will be .
, % of the Moon is Illuminated

Today's Extremes

State Highs State Lows

Community

WunderPhotos

Category 6

Welcome to Category 6. This is the collective home for Weather Underground's featured writeups by Dr. Jeff Masters (right), Bob Henson (left), Chris Burt, and other regular contributors.

Nearby

Air Quality

  Air Quality AQ Index Pollutant
Not available.

Snow Depth

Station Depth Elevation

Earthquake Activity

City Distance Mag. Time & Date
Minimum magnitude displayed is 2.5.

Coastal Water Temperatures

Place Temperature

Stations

Nearby Weather Stations

Station Location Temp. Windchill Dew Point Humidity Wind Precip. Elev Updated Type
                   

Watches & Warnings

There are currently no watches in effect.